Temp
86 85 82 83 83 83 83 83 83 82 81 81 81 82 82 83 83 83 83 82 83 83 83 83 83 83 83 84 84 84 84 83 83 83 83 83 83 83 83 83 83 85 83
88 86 82 82 83 83 83 82 82 82 82 81 81 82 82 82 81 81 83 83 84 83 83 83 83 83 84 84 84 84 84 83 83 84 84 84 83 83 82 83 84 83 83
88 87 85 82 83 83 82 82 82 82 83 81 81 82 83 83 82 83 83 84 83 82 83 83 83 85 84 84 83 84 84 84 83 84 86 85 83 83 83 83 83 83 83
91 88 85 82 83 83 82 82 83 83 82 81 81 82 81 80 83 83 83 83 84 83 83 83 85 85 84 84 84 84 84 84 84 85 85 87 86 83 83 83 83 82 82
92 88 85 83 83 83 83 82 82 81 81 81 81 79 79 79 83 83 83 84 83 83 83 84 84 84 84 84 84 83 83 84 84 85 84 82 81 83 83 83 82 82 83
91 88 84 83 84 83 83 82 81 81 81 80 79 79 80 78 78 83 83 84 84 82 84 84 84 85 84 84 84 84 84 84 85 88 85 83 81 83 83 83 83 82 82
91 89 86 83 83 83 83 82 82 81 81 80 78 77 79 81 82 83 82 83 83 84 84 85 85 84 84 84 84 84 84 84 84 86 86 83 81 83 83 83 83 82 82
92 90 86 83 83 84 84 83 83 82 82 81 80 81 83 82 83 83 82 83 85 85 84 84 84 84 84 84 84 84 84 85 90 88 85 83 81 83 83 83 83 82 82
95 91 88 87 85 84 84 84 84 83 84 83 83 82 81 81 82 82 81 83 85 85 85 84 84 84 84 84 85 85 85 85 84 86 87 82 82 83 83 83 82 82 82
94 91 90 88 88 87 86 84 84 84 84 84 84 85 84 83 82 83 83 83 84 85 85 84 84 84 84 84 85 85 85 85 86 86 85 82 82 83 83 83 82 82 82
93 85 90 91 89 85 85 85 84 84 84 84 84 84 82 79 79 81 83 84 85 85 85 84 84 84 84 84 85 85 85 77 82 83 82 80 82 83 83 83 83 82 82
89 86 89 92 90 89 90 83 81 83 81 83 80 76 76 78 78 82 84 85 85 85 85 84 84 85 85 88 87 85 85 85 83 85 80 81 82 84 83 83 83 82 81
96 95 96 92 87 89 85 85 83 76 81 81 82 78 77 83 85 84 82 84 80 84 85 85 84 84 88 88 85 89 87 89 83 84 81 81 82 84 84 83 82 82 82
94 95 95 96 88 86 90 78 81 86 87 88 85 85 83 84 85 85 85 77 81 85 86 84 83 86 87 87 89 90 90 90 84 86 81 81 82 83 84 83 83 82 82
93 94 95 94 88 85 86 86 85 87 88 87 84 84 84 84 83 87 85 84 85 86 84 83 83 84 85 86 88 87 88 89 87 84 82 82 80 82 84 84 83 82 82
92 88 94 92 90 90 86 86 86 85 86 86 85 85 84 85 81 83 85 85 84 85 83 81 82 84 84 86 85 86 88 88 85 85 86 84 81 82 82 83 83 83 83
95 92 92 90 91 88 88 87 88 87 86 86 86 83 84 83 84 85 84 85 84 80 82 82 83 85 83 85 83 85 85 88 85 87 87 86 83 82 82 83 82 82 83
95 90 91 93 90 89 88 86 86 85 83 83 85 83 83 85 86 85 84 85 85 86 84 83 81 78 81 82 83 82 84 86 85 86 87 86 85 83 79 81 82 82 82
93 92 93 90 89 88 88 87 83 84 85 83 86 84 83 86 88 85 83 85 82 82 81 83 81 80 79 80 83 83 83 85 86 91 81 77 86 84 83 81 78 82 82
94 92 92 93 86 84 87 82 82 81 83 83 85 85 86 87 89 85 85 82 85 76 75 81 78 80 82 84 87 87 84 79 83 84 86 88 86 87 86 80 78 79 81
95 92 90 90 88 88 82 81 80 81 82 83 83 84 82 86 84 82 81 78 82 80 79 84 83 81 79 81 79 79 77 85 87 85 86 85 86 88 84 81 78 78 76
94 91 90 89 87 88 86 83 81 81 82 83 85 86 90 86 85 86 84 80 84 83 81 80 80 77 79 77 73 74 75 77 72 80 81 86 88 87 87 87 85 78 77
92 92 89 89 86 87 90 91 88 86 86 86 84 86 87 88 90 84 85 85 85 83 82 82 82 81 77 77 77 74 71 69 73 76 78 86 86 85 85 83 86 84 81
95 95 90 88 88 88 89 89 85 85 82 81 86 84 86 86 88 89 89 85 83 81 77 79 82 81 78 76 78 84 80 78 71 69 79 77 76 80 84 84 86 85 85
99 96 92 87 86 88 87 86 87 85 82 83 81 84 88 86 88 89 88 86 84 81 83 82 81 81 80 77 76 78 76 76 76 73 69 69 77 77 80 84 85 83 85
101 98 94 86 85 85 87 87 85 85 87 82 81 84 84 86 86 86 88 87 86 84 83 82 81 81 80 81 77 76 76 74 73 73 71 74 73 77 78 84 84 83 83
MSLP
1010.30 1010.97 1011.19 1011.23 1011.27 1011.38 1011.24 1011.37 1011.43 1011.44 1011.66 1012.09 1012.49 1012.59 1012.92 1013.21 1013.50 1013.86 1014.16 1014.47 1014.49 1014.66 1014.55 1014.65 1014.76 1014.95 1015.06 1015.08 1015.31 1015.32 1015.38 1015.37 1015.42 1015.55 1015.67 1015.86 1015.94 1016.06 1016.19 1016.24 1016.46 1016.49 1016.83
1010.50 1011.08 1011.48 1011.58 1011.57 1011.47 1011.40 1011.40 1011.43 1011.43 1011.67 1012.12 1012.63 1012.88 1013.31 1013.58 1013.90 1014.32 1014.34 1014.57 1014.67 1014.71 1014.75 1015.04 1014.91 1015.23 1015.34 1015.57 1015.56 1015.56 1015.68 1015.68 1015.78 1015.84 1015.90 1016.14 1016.31 1016.49 1016.61 1016.48 1016.57 1016.98 1017.15
1010.43 1010.98 1011.56 1011.84 1011.75 1011.59 1011.44 1011.24 1011.03 1011.27 1011.59 1012.18 1012.77 1013.25 1013.64 1014.01 1014.21 1014.39 1014.65 1014.56 1014.83 1015.12 1015.04 1015.19 1015.31 1015.45 1015.57 1015.72 1015.88 1015.88 1015.92 1015.93 1016.09 1016.17 1015.81 1016.15 1016.65 1016.76 1016.88 1016.93 1017.09 1017.27 1017.42
1010.01 1010.90 1011.69 1011.97 1011.91 1011.81 1011.62 1011.40 1011.00 1011.18 1011.71 1012.37 1012.93 1013.49 1014.12 1014.47 1014.70 1014.70 1014.86 1014.90 1014.98 1015.12 1015.36 1015.41 1015.54 1015.64 1015.81 1015.97 1016.00 1015.95 1015.98 1016.07 1016.27 1016.24 1016.05 1016.29 1016.78 1017.13 1017.20 1017.25 1017.37 1017.51 1017.68
1009.99 1011.09 1011.95 1012.08 1012.14 1012.18 1012.03 1011.77 1011.63 1011.80 1012.35 1012.94 1013.42 1013.90 1013.84 1014.87 1015.05 1015.15 1015.09 1015.02 1015.17 1015.45 1015.64 1015.73 1015.92 1016.02 1016.21 1016.19 1016.12 1016.01 1016.13 1016.27 1016.26 1016.25 1016.44 1016.62 1017.04 1017.42 1017.40 1017.37 1017.53 1017.65 1017.72
1010.39 1011.56 1012.22 1012.37 1012.49 1012.42 1012.53 1012.47 1012.50 1012.78 1013.04 1013.52 1013.94 1014.60 1015.16 1015.45 1015.48 1015.40 1015.33 1015.26 1015.46 1015.96 1016.01 1015.96 1016.15 1016.32 1016.46 1016.50 1016.26 1016.08 1016.15 1016.04 1015.97 1015.62 1016.30 1016.95 1017.31 1017.59 1017.60 1017.63 1017.82 1017.92 1018.08
1010.66 1011.68 1012.39 1012.62 1012.67 1012.91 1013.13 1013.12 1013.15 1013.28 1013.63 1014.14 1014.71 1014.83 1015.54 1015.64 1015.55 1015.52 1015.57 1015.54 1015.88 1016.05 1016.16 1016.30 1016.46 1016.63 1016.67 1016.65 1016.58 1016.32 1016.14 1016.09 1016.07 1015.85 1016.25 1017.10 1017.64 1017.75 1017.81 1017.92 1018.07 1018.29 1018.41
1010.51 1011.73 1012.49 1012.99 1013.17 1013.34 1013.46 1013.67 1013.80 1013.94 1014.17 1014.44 1014.84 1015.09 1015.38 1015.74 1015.82 1015.74 1015.73 1015.75 1015.92 1016.22 1016.50 1016.59 1016.71 1016.81 1016.84 1016.81 1016.70 1016.48 1016.20 1016.16 1015.92 1016.04 1016.42 1017.12 1017.74 1017.83 1017.95 1018.04 1018.27 1018.41 1018.64
1010.12 1011.39 1012.40 1012.96 1013.46 1013.63 1013.80 1013.86 1013.88 1014.13 1014.42 1014.56 1014.96 1015.56 1015.99 1016.01 1015.87 1016.05 1016.08 1016.12 1016.15 1016.41 1016.65 1016.78 1016.88 1016.94 1016.87 1016.81 1016.71 1016.55 1016.45 1016.23 1016.17 1016.12 1016.41 1017.09 1017.60 1017.82 1017.99 1018.15 1018.33 1018.54 1018.67
1010.17 1011.01 1011.81 1012.66 1013.06 1013.38 1013.79 1013.91 1013.98 1014.17 1014.47 1014.63 1014.96 1015.28 1015.71 1015.82 1015.93 1016.03 1016.23 1016.29 1016.48 1016.61 1016.74 1016.87 1016.98 1016.95 1016.86 1016.77 1016.63 1016.46 1016.48 1016.25 1016.40 1016.36 1016.45 1016.95 1017.44 1017.76 1018.03 1018.21 1018.43 1018.66 1018.81
1010.37 1011.47 1011.61 1012.05 1012.78 1013.28 1013.73 1014.03 1014.65 1015.10 1015.06 1014.87 1015.24 1015.67 1015.56 1015.57 1015.95 1016.06 1016.05 1016.24 1016.37 1016.63 1016.76 1016.84 1016.92 1016.83 1016.80 1016.75 1016.54 1016.46 1016.21 1016.45 1016.91 1016.86 1016.81 1017.02 1017.11 1017.59 1017.94 1018.16 1018.40 1018.69 1018.84
1010.36 1011.55 1011.69 1011.65 1012.53 1012.74 1013.19 1014.07 1015.19 1015.95 1015.79 1015.04 1015.57 1015.99 1015.93 1015.69 1015.83 1015.92 1016.04 1016.02 1016.47 1016.55 1016.67 1016.72 1016.73 1016.77 1016.68 1016.21 1016.09 1016.58 1016.39 1016.51 1016.29 1016.50 1016.86 1017.08 1017.07 1017.19 1017.70 1017.97 1018.21 1018.48 1018.78
1009.73 1010.32 1010.80 1011.35 1012.04 1012.40 1012.79 1013.88 1014.59 1014.99 1015.27 1015.17 1014.82 1015.43 1015.49 1015.33 1015.47 1015.73 1016.28 1016.39 1016.42 1016.41 1016.47 1016.56 1016.51 1016.39 1015.95 1015.80 1015.82 1015.62 1015.34 1015.39 1016.26 1016.48 1016.66 1016.84 1017.39 1017.13 1017.21 1017.69 1017.95 1018.23 1018.50
1009.90 1010.27 1010.97 1011.48 1012.04 1012.15 1012.26 1013.74 1013.94 1014.22 1014.35 1014.22 1014.39 1014.64 1014.86 1015.10 1015.27 1015.26 1015.81 1015.98 1016.14 1015.97 1015.80 1016.09 1016.06 1015.64 1015.59 1015.52 1015.36 1015.06 1014.96 1014.98 1015.57 1015.96 1016.65 1016.46 1016.76 1017.20 1016.71 1017.09 1017.52 1017.85 1018.19
1009.88 1010.45 1010.85 1011.57 1012.27 1012.49 1012.63 1012.92 1013.23 1013.18 1013.40 1013.99 1014.32 1014.58 1014.83 1014.97 1015.15 1014.81 1015.15 1015.48 1015.25 1015.40 1015.70 1015.77 1015.58 1015.58 1015.47 1015.53 1015.32 1015.17 1015.06 1014.82 1015.10 1015.67 1015.88 1015.76 1015.52 1016.28 1016.34 1016.31 1016.81 1017.36 1017.84
1009.88 1010.58 1011.08 1011.93 1012.46 1012.52 1013.04 1013.10 1013.06 1013.08 1013.43 1013.83 1014.29 1014.54 1014.82 1014.98 1015.07 1014.91 1014.95 1015.12 1015.23 1015.43 1015.74 1015.80 1015.64 1015.31 1015.36 1015.25 1015.23 1015.11 1014.98 1014.78 1014.75 1014.79 1015.20 1015.17 1015.28 1016.02 1016.36 1016.39 1016.71 1017.01 1017.33
1009.68 1010.82 1011.51 1012.10 1012.72 1012.99 1013.20 1013.29 1013.20 1013.29 1013.62 1013.92 1014.15 1014.62 1014.95 1015.11 1014.83 1014.89 1015.10 1015.19 1015.05 1015.47 1015.07 1015.22 1015.27 1014.95 1015.23 1015.19 1015.19 1014.93 1014.85 1014.71 1014.54 1014.62 1014.25 1014.52 1015.15 1016.05 1016.54 1016.78 1017.11 1017.22 1017.27
1009.71 1010.64 1011.31 1011.73 1012.41 1012.95 1013.28 1013.54 1013.38 1013.40 1013.80 1014.04 1014.12 1014.58 1014.89 1014.87 1014.74 1015.04 1015.14 1015.04 1014.78 1014.68 1014.79 1015.04 1015.20 1015.26 1015.42 1015.36 1015.15 1014.93 1014.79 1014.36 1014.20 1013.90 1013.87 1014.16 1014.46 1015.48 1015.64 1016.39 1017.22 1017.01 1017.08
1010.03 1010.64 1010.81 1011.66 1012.24 1012.83 1013.24 1013.26 1013.57 1013.72 1013.83 1014.07 1014.13 1014.46 1014.58 1014.50 1014.58 1014.94 1014.91 1014.71 1014.73 1014.86 1015.11 1015.00 1015.14 1015.14 1015.32 1015.26 1015.03 1014.56 1014.33 1014.06 1013.78 1013.28 1013.93 1014.43 1013.82 1014.64 1015.27 1015.44 1016.18 1016.46 1016.70
1009.93 1010.78 1011.04 1011.40 1012.15 1012.75 1013.17 1013.50 1013.73 1013.87 1013.95 1013.91 1014.03 1014.03 1014.23 1014.24 1014.28 1014.42 1014.49 1014.63 1014.49 1015.21 1015.34 1015.14 1015.46 1015.16 1015.01 1014.81 1014.76 1014.36 1014.03 1013.40 1012.92 1012.89 1012.97 1012.89 1013.04 1013.45 1014.22 1014.98 1015.77 1016.06 1016.36
1009.57 1010.44 1010.98 1011.32 1011.95 1012.53 1012.92 1013.16 1013.43 1013.68 1013.80 1013.84 1013.77 1013.82 1014.07 1014.18 1014.13 1014.39 1014.50 1014.70 1014.46 1014.57 1014.78 1014.94 1014.93 1015.07 1015.05 1015.06 1015.23 1014.53 1013.84 1012.63 1012.73 1012.94 1012.08 1012.35 1012.74 1013.07 1013.71 1014.42 1015.01 1015.41 1015.82
1009.13 1009.95 1010.71 1011.20 1011.87 1012.22 1012.34 1012.52 1013.06 1013.30 1013.32 1013.41 1013.39 1013.57 1013.53 1013.68 1013.89 1014.00 1014.62 1014.72 1014.70 1014.55 1014.72 1014.84 1015.14 1015.22 1015.21 1015.11 1015.18 1014.72 1013.50 1013.45 1012.08 1013.11 1012.35 1012.42 1012.58 1012.76 1013.17 1013.59 1014.03 1014.87 1015.25
1008.49 1009.35 1010.26 1010.96 1011.61 1012.00 1012.11 1012.25 1012.53 1013.05 1012.85 1012.78 1013.19 1013.41 1013.55 1013.56 1013.61 1013.89 1014.04 1014.22 1014.53 1014.75 1014.78 1014.66 1014.73 1014.83 1015.06 1014.91 1014.74 1014.70 1014.16 1013.74 1014.05 1013.47 1012.72 1012.11 1012.66 1012.87 1013.21 1013.39 1013.63 1013.95 1014.50
1007.51 1008.61 1009.60 1010.58 1011.30 1011.81 1011.93 1012.10 1012.41 1012.57 1012.78 1012.87 1012.75 1012.84 1013.27 1013.47 1013.69 1013.52 1013.64 1014.00 1014.49 1014.78 1014.85 1014.67 1014.58 1014.85 1015.05 1014.97 1014.44 1014.04 1014.27 1014.22 1014.06 1013.64 1012.96 1013.11 1012.79 1013.30 1013.44 1013.25 1013.44 1013.69 1013.94
1006.42 1007.70 1008.88 1010.03 1010.93 1011.39 1011.77 1011.94 1012.22 1012.49 1012.65 1012.60 1012.86 1012.91 1013.16 1013.26 1013.20 1013.34 1013.43 1013.65 1014.05 1014.51 1014.54 1014.50 1014.57 1014.62 1014.68 1014.73 1014.65 1014.34 1014.39 1014.40 1014.44 1014.25 1014.03 1014.34 1013.61 1013.56 1013.67 1013.09 1012.94 1013.27 1013.63
1005.69 1006.96 1008.28 1009.54 1010.51 1011.26 1011.44 1011.69 1012.12 1012.08 1012.36 1012.68 1012.69 1012.86 1012.93 1012.90 1012.92 1013.17 1013.12 1013.51 1013.65 1014.11 1014.29 1014.34 1014.43 1014.54 1014.50 1014.41 1014.50 1014.63 1014.56 1014.75 1014.63 1014.57 1014.29 1013.99 1014.00 1013.26 1013.07 1012.73 1012.80 1013.21 1013.60
Wind_Speed
13 13 12 12 14 12 11 9 7 9 13 18 20 23 23 22 22 20 17 13 12 12 11 9 11 13 13 15 15 15 14 14 15 16 16 15 14 13 10 7 4 12 11
15 13 13 13 12 11 11 7 5 7 14 18 21 23 24 23 22 18 17 16 13 11 12 14 15 14 15 14 13 13 12 12 14 15 18 16 14 12 13 15 10 10 11
16 15 14 11 13 13 15 14 6 10 15 20 22 24 23 22 18 17 15 15 13 12 14 15 16 15 15 13 11 10 11 9 10 12 16 11 10 13 12 14 12 11 11
18 16 14 12 12 16 16 16 12 14 19 21 23 25 23 18 18 18 15 12 12 12 15 15 16 16 14 12 10 8 7 7 7 9 4 11 11 13 12 12 11 10 12
20 17 14 13 13 18 18 20 20 21 20 23 23 24 20 14 15 14 13 13 13 14 14 16 16 16 15 11 7 3 2 1 4 8 3 8 7 10 12 11 12 10 9
20 16 14 15 15 17 21 21 24 23 21 21 24 22 20 12 4 10 10 14 17 15 16 16 16 15 14 11 4 3 4 6 9 12 12 12 9 12 13 14 12 12 12
20 16 15 15 15 17 19 23 24 24 22 22 23 20 17 15 11 11 12 15 16 15 16 15 15 13 11 9 4 3 7 8 9 7 12 11 8 11 12 12 12 10 10
20 17 15 16 15 16 19 21 23 25 25 25 22 20 18 14 11 11 15 15 15 15 14 13 12 10 8 6 2 5 8 10 5 10 11 9 10 11 11 11 11 11 9
22 18 15 15 15 16 16 17 19 21 20 24 24 19 16 12 10 9 11 12 13 13 12 11 9 7 4 3 1 3 6 10 9 8 12 8 10 11 11 10 10 10 10
17 16 18 15 15 13 13 16 16 17 17 18 19 19 17 14 10 8 9 11 10 11 9 8 6 4 3 3 4 3 5 10 7 7 7 8 12 11 10 10 9 9 9
15 14 16 15 13 12 10 12 14 15 15 16 14 13 14 5 7 7 7 9 9 10 8 6 5 5 5 8 9 7 7 4 4 3 4 15 15 13 11 10 9 9 8
19 17 15 17 16 13 10 9 11 8 6 9 12 10 5 6 6 9 9 9 10 9 8 8 8 9 9 7 5 9 6 7 3 7 4 13 15 16 13 12 11 10 11
10 12 9 8 16 11 10 7 6 10 6 6 10 12 8 5 5 6 4 5 4 8 5 7 7 6 8 4 5 5 8 5 5 3 7 14 12 15 16 14 13 12 12
10 12 14 9 10 4 7 6 7 6 7 6 4 5 4 3 6 4 5 6 5 4 4 7 5 3 2 6 5 4 5 1 3 4 8 16 14 15 18 18 16 14 13
13 11 11 9 7 5 5 3 4 3 4 9 6 4 4 3 3 1 6 5 4 3 3 4 3 5 5 6 5 6 6 3 3 3 6 19 20 20 19 20 19 17 16
13 9 13 10 4 8 4 3 1 2 5 5 4 4 3 2 5 3 2 2 2 1 1 3 4 2 1 5 5 6 4 6 1 5 8 9 19 18 17 17 18 19 19
16 14 11 11 9 6 5 2 3 3 6 5 4 7 3 5 4 3 2 3 3 4 5 4 4 2 3 4 5 4 4 8 5 6 4 6 10 17 11 12 17 18 19
12 12 13 11 11 10 9 5 1 3 3 3 3 5 6 7 4 2 2 4 3 1 3 3 2 2 4 4 4 5 6 8 8 9 4 2 8 9 14 12 15 18 20
11 8 8 12 12 9 6 4 3 1 2 1 3 5 7 8 6 5 4 4 1 5 3 4 2 3 4 5 6 6 4 6 5 8 6 8 7 11 7 19 24 19 21
13 9 8 5 9 11 7 4 3 3 3 4 4 3 5 4 5 4 5 2 4 4 7 6 4 3 4 2 6 8 7 6 8 5 7 8 5 5 7 10 9 9 10
12 12 10 7 8 7 4 4 6 6 5 5 5 7 6 8 5 6 4 2 6 4 5 2 1 4 3 3 2 6 8 9 3 8 5 5 4 3 5 5 6 5 8
12 13 10 9 9 6 5 4 3 4 3 5 7 7 4 4 4 5 2 5 1 3 3 3 2 2 2 4 4 4 5 3 5 13 6 4 3 3 5 7 7 10 8
14 13 12 8 12 8 4 1 3 4 2 2 5 4 5 5 3 4 5 4 3 2 4 3 3 4 2 3 7 3 4 3 3 3 10 2 4 2 5 6 5 7 10
16 14 14 12 10 8 6 5 6 4 3 1 4 3 6 7 6 4 3 5 3 2 4 3 3 2 3 4 4 2 1 4 3 5 3 2 5 6 5 4 6 6 6
15 16 15 14 10 8 8 6 5 5 2 3 4 5 1 5 5 5 5 5 4 3 0 1 4 3 2 3 4 2 3 2 4 3 4 4 4 3 6 2 3 7 5
12 14 15 15 12 11 9 8 7 5 4 1 1 2 3 4 6 6 4 2 0 2 3 2 4 4 5 3 2 3 1 1 2 2 2 3 4 4 3 4 2 6 5
Wind_Direction
87 81 71 84 84 71 71 68 79 110 130 134 136 126 124 121 122 130 129 136 135 143 121 117 127 107 100 95 94 98 104 106 103 99 92 83 79 71 64 86 121 100 105
95 85 80 93 84 67 59 62 93 119 138 140 136 131 128 124 125 123 124 119 117 122 106 104 113 107 104 103 108 110 111 121 119 118 109 92 84 79 71 67 122 102 101
105 96 90 98 80 61 51 41 106 132 145 139 137 130 125 124 120 118 105 97 100 114 104 109 111 107 109 109 109 109 121 121 124 139 129 92 86 82 79 82 92 103 100
109 96 92 94 80 63 52 48 92 127 133 135 135 126 122 128 119 106 94 89 89 106 108 114 111 111 106 105 108 114 132 133 155 162 232 88 89 85 83 85 86 98 106
93 94 97 103 85 75 63 60 77 101 116 125 124 125 115 115 115 101 78 97 97 102 109 102 104 106 107 101 98 115 126 136 239 237 196 97 93 94 92 89 93 98 115
96 99 97 102 91 84 70 74 83 84 99 116 123 116 121 113 91 98 78 97 106 112 113 109 111 104 102 101 88 342 330 318 317 109 92 82 84 102 95 89 83 91 99
109 110 101 98 93 92 87 83 85 91 96 110 107 107 117 107 111 88 94 98 109 117 104 105 105 106 90 97 94 308 301 313 302 127 111 104 107 103 97 93 91 90 102
111 110 108 107 105 104 103 100 95 94 100 102 112 115 118 102 94 88 97 100 112 108 108 105 102 98 104 111 127 278 298 308 116 84 95 103 120 113 106 100 99 100 107
119 119 122 119 110 107 111 110 110 109 107 108 108 108 110 116 104 107 99 103 110 111 110 108 110 119 119 101 124 269 294 304 307 125 119 122 132 124 121 113 111 104 115
120 131 123 145 130 128 118 125 124 120 122 118 121 119 99 108 117 124 115 117 117 117 118 119 136 149 177 211 234 244 296 298 286 82 103 130 140 133 128 133 122 116 115
114 126 138 120 113 115 128 131 130 128 134 132 130 128 135 163 144 139 136 141 135 131 134 150 189 218 230 248 247 233 235 29 20 265 112 153 144 145 145 141 144 143 134
146 144 144 144 136 157 130 161 123 86 166 155 136 147 218 177 166 154 153 156 151 148 168 185 220 234 236 244 224 226 239 188 199 131 148 159 155 156 158 157 157 156 158
136 128 126 109 145 164 149 158 149 168 184 189 154 174 188 151 143 165 150 167 180 174 195 196 225 237 235 202 229 229 223 173 161 197 161 152 174 172 166 169 169 169 164
132 142 128 150 105 129 160 156 186 167 171 148 101 100 94 179 185 210 152 198 210 172 191 208 216 205 30 298 270 308 310 170 83 110 133 158 202 205 175 176 178 177 175
147 136 142 129 88 92 70 38 132 128 108 115 130 212 148 238 244 234 155 201 169 175 213 262 251 229 177 238 286 318 304 318 190 174 175 202 183 201 192 179 181 181 180
145 124 121 124 138 120 118 131 106 188 118 114 145 125 146 279 265 149 111 253 181 140 88 268 269 218 211 239 213 247 289 289 6 250 195 204 195 193 201 187 190 184 184
133 127 138 144 166 132 132 123 210 234 90 135 163 130 187 247 281 85 295 245 242 180 184 252 296 321 301 313 297 290 272 272 302 250 277 181 171 186 207 210 203 195 186
112 122 155 155 159 168 146 206 316 109 140 168 154 146 190 239 211 258 247 258 270 272 209 230 217 272 246 256 257 261 247 253 232 249 266 302 166 172 208 209 240 212 190
124 148 141 148 163 146 160 161 152 209 145 151 201 181 200 221 189 225 233 249 181 271 300 267 237 205 232 241 231 241 219 241 250 233 150 227 196 174 183 173 210 216 200
139 146 132 169 142 142 170 157 165 202 216 179 219 228 189 242 190 189 241 136 246 130 251 270 268 251 271 296 296 307 284 235 236 211 194 205 196 212 155 181 199 203 198
150 154 154 158 134 157 171 165 180 200 199 209 207 217 216 221 207 219 255 301 256 221 234 274 331 272 314 343 309 279 258 258 248 228 191 178 188 188 117 130 163 147 178
167 159 165 162 155 196 193 164 74 239 207 211 193 201 185 215 202 204 248 246 141 4 10 296 308 286 261 237 222 262 300 355 26 277 96 229 130 150 160 152 154 162 190
166 167 165 177 162 202 202 148 107 190 226 129 129 168 186 239 242 216 181 263 353 333 294 232 260 230 246 288 228 226 305 308 309 67 277 82 138 206 151 155 176 165 176
169 173 161 170 167 192 224 188 166 201 200 253 179 173 167 181 227 247 200 205 239 253 275 265 258 349 295 281 297 252 260 301 321 346 347 54 87 351 317 192 184 178 171
171 168 160 166 176 207 197 236 168 240 178 205 137 127 123 163 191 239 208 228 171 236 272 210 263 242 269 259 341 32 267 295 313 290 302 11 342 271 269 218 205 188 157
166 163 161 163 175 201 190 211 236 202 217 165 310 139 251 218 194 214 224 144 234 226 269 308 22 331 290 308 341 277 26 330 299 308 295 235 271 254 253 160 273 125 170